Location: Burbank
(38.7788°N, 114.0429°W)
Time: 20:08:08
(UTC+00:00)

Vanguard 2 Rocket - Pass Details

Date: 15 May 2026
Orbit: 553 x 3286 km, 32.9° (Epoch: 6 June)

Event Time Altitude Azimuth Distance (km) Brightness Sun altitude
Rises 17:24:58 0° 225° (SW) 4,757 10.5 56.1°
Reaches altitude 10° 17:27:46 10° 219° (SW) 4,084 10.3 56.5°
Maximum altitude 17:38:56 48° 149° (SSE) 3,041 11.3 58.5°
Drops below altitude 10° 17:56:07 10° 84° (E) 6,120 11.6 61.2°
Sets 18:01:25 0° 79° (E) 7,249 11.7 62.1°
